Regional Weather Roundup
Issued by NWS Albany, NY

Home | Current Version | Previous Version | Text Only | Print | Product List | Glossary On
Versions: 1 2 3 4 5 6 7 8 9 10 11 12 13 14 15 16 17 18 19 20 21 22 23 24 25 26 27 28 29 30 31 32 33 34 35 36 37 38 39 40 41 42 43 44 45 46 47 48 49 50
000
ASUS41 KALY 310110
RWRALY

NEW YORK STATE HOURLY WEATHER ROUNDUP
NATIONAL WEATHER SERVICE ALBANY NY
900 PM EDT WED JUL 30 2014

NOTE: "FAIR" INDICATES FEW OR NO CLOUDS BELOW 12,000 FEET WITH NO
SIGNIFICANT WEATHER AND/OR NO OBSTRUCTIONS TO VISIBILITY.

NYZ032-033-038>043-046>054-057>066-NYZ062>081-310200-
EAST


CITY           SKY/WX    TMP DP  RH WIND       PRES   REMARKS
ALBANY         PTCLDY    70  54  56 SE3       30.00S
GLENS FALLS    CLEAR     63  57  81 CALM      30.00R
POUGHKEEPSIE   CLEAR     66  59  78 CALM      30.01R
NEWBURGH       CLEAR     75  57  53 CALM      30.04
MONTGOMERY     CLEAR     63  57  81 SW3       30.02R
WHITE PLAINS   PTCLDY    70  55  59 S3        30.04R
ISLIP          PTCLDY    72  57  59 S6        30.03R
NEW YORK CITY  PTCLDY    74  57  55 S9        30.03R
CENTRAL PARK   CLEAR     72  55  55 CALM      30.06R
$$

NYZ005>009-017-018-044>046-055-056-310200-
CENTRAL


CITY           SKY/WX    TMP DP  RH WIND       PRES   REMARKS
FULTON         CLOUDY    61  58  90 S6        29.99S
SYRACUSE       CLOUDY    61  57  87 S10       29.99F
ROME           RAIN      60  58  92 SW5       30.03R
ELMIRA         CLOUDY    64  58  80 SW6       30.02R
BINGHAMTON     CLOUDY    62  57  83 SW7       30.04R
MONTICELLO     CLEAR     63  55  77 E5        30.07R
$$

NYZ026>034-041>043-310200-
NORTH


CITY           SKY/WX    TMP DP  RH WIND       PRES   REMARKS
WATERTOWN      MOCLDY    65  53  65 S5        29.97S
FORT DRUM      NOT AVBL
MASSENA        PTCLDY    61  58  90 CALM      29.97R
SARANAC LAKE   MOCLDY    56  53  90 CALM      29.99R
PLATTSBURGH    CLEAR     61  57  87 CALM      29.96R
$$

NYZ001>004-010>016-019>021-310200-
WEST


CITY           SKY/WX    TMP DP  RH WIND       PRES   REMARKS
NIAGARA FALLS  MOCLDY    63  59  87 S6        29.97R
BUFFALO        MOCLDY    67  56  67 SW7       29.98R
DUNKIRK        CLEAR     63  57  81 S6        29.99S
JAMESTOWN      CLEAR     59  55  88 CALM      30.03S
WELLSVILLE     PTCLDY    60  54  80 SW8       30.06R
ROCHESTER      PTCLDY    62  57  83 SW3       29.98S
PENN YAN       MOCLDY    60  57  89 S8        30.00F
$$

             KEY
       WCI = WIND CHILL INDEX
       VSB = VISIBILITY
       HX  = HEAT INDEX
$$



USA.gov is the U.S. government's official web portal to all federal, state and local government web resources and services.